• In Netherlands
  • List of Countries
  • For 7 days
  • Water Temperature
  • Satellite Maps
  • Weather Map
  • Weather Widgets
  • user-avatar
    Login

    Hourly Weather Brisbane

    Today, 19 January, Friday

    Time Temperature Precipitation Wind Pressure Humidity
    00:00 +20°C° 0 mm 2 mps 761 mmHg 71%
    01:00 +19°C° 0 mm 2 mps 760 mmHg 72%
    02:00 +19°C° 0 mm 2 mps 760 mmHg 73%
    03:00 +18°C° 0 mm 2 mps 760 mmHg 74%
    04:00 +18°C° 0 mm 2 mps 760 mmHg 75%
    05:00 +19°C° 0 mm 2 mps 760 mmHg 69%
    06:00 +21°C° 0 mm 2 mps 760 mmHg 63%
    07:00 +23°C° 0 mm 2 mps 760 mmHg 57%
    08:00 +27°C° 0 mm 2 mps 760 mmHg 46%
    09:00 +30°C° 0 mm 2 mps 759 mmHg 35%
    10:00 +34°C° 0 mm 1 mps 759 mmHg 24%
    11:00 +36°C° 0 mm 2 mps 759 mmHg 23%
    12:00 +37°C° 0 mm 3 mps 758 mmHg 21%
    13:00 +37°C° 0 mm 3 mps 758 mmHg 20%
    14:00 +36°C° 0 mm 4 mps 757 mmHg 24%
    15:00 +35°C° 0 mm 4 mps 757 mmHg 29%
    16:00 +34°C° 0 mm 5 mps 757 mmHg 34%
    17:00 +32°C° 0 mm 4 mps 757 mmHg 42%
    18:00 +29°C° 0 mm 4 mps 757 mmHg 50%
    19:00 +26°C° 0 mm 3 mps 757 mmHg 58%
    20:00 +25°C° 0 mm 3 mps 758 mmHg 63%
    21:00 +24°C° 0 mm 3 mps 758 mmHg 68%
    22:00 +23°C° 0 mm 2 mps 758 mmHg 73%
    23:00 +21°C° 0 mm 2 mps 758 mmHg 74%

    Tomorrow, 20 January, Saturday

    Time Temperature Precipitation Wind Pressure Humidity
    00:00 +21°C° 0 mm 2 mps 758 mmHg 75%
    01:00 +20°C° 0 mm 2 mps 757 mmHg 76%
    02:00 +20°C° 0 mm 2 mps 757 mmHg 77%
    03:00 +19°C° 0 mm 2 mps 757 mmHg 77%
    04:00 +19°C° 0 mm 2 mps 757 mmHg 77%
    05:00 +20°C° 0 mm 2 mps 757 mmHg 72%
    06:00 +21°C° 0 mm 3 mps 758 mmHg 67%
    07:00 +24°C° 0 mm 3 mps 758 mmHg 62%
    08:00 +26°C° 0 mm 3 mps 758 mmHg 54%
    09:00 +29°C° 0 mm 3 mps 758 mmHg 46%
    10:00 +31°C° 0 mm 3 mps 758 mmHg 38%
    11:00 +34°C° 0 mm 4 mps 757 mmHg 35%
    12:00 +35°C° 0 mm 4 mps 757 mmHg 33%
    13:00 +36°C° 0 mm 4 mps 756 mmHg 31%
    14:00 +36°C° 0 mm 5 mps 756 mmHg 34%
    15:00 +35°C° 0 mm 5 mps 755 mmHg 37%
    16:00 +35°C° 0 mm 6 mps 755 mmHg 41%
    17:00 +32°C° 0 mm 5 mps 755 mmHg 49%
    18:00 +29°C° 0 mm 5 mps 756 mmHg 56%
    19:00 +27°C° 0 mm 5 mps 756 mmHg 64%
    20:00 +26°C° 0 mm 4 mps 757 mmHg 70%
    21:00 +25°C° 0 mm 4 mps 757 mmHg 75%
    22:00 +23°C° 0 mm 4 mps 758 mmHg 81%
    23:00 +23°C° 0 mm 4 mps 758 mmHg 83%

    Day after tomorrow, 21 January, Sunday

    Time Temperature Precipitation Wind Pressure Humidity
    00:00 +22°C° 0 mm 4 mps 757 mmHg 84%
    01:00 +22°C° 0 mm 4 mps 757 mmHg 86%
    02:00 +22°C° 0 mm 3 mps 756 mmHg 87%
    03:00 +22°C° 0 mm 3 mps 756 mmHg 88%
    04:00 +22°C° 0 mm 3 mps 756 mmHg 89%
    05:00 +22°C° 0 mm 3 mps 757 mmHg 85%
    06:00 +24°C° 0 mm 3 mps 757 mmHg 81%
    07:00 +25°C° 0 mm 3 mps 758 mmHg 77%
    08:00 +27°C° 0 mm 3 mps 758 mmHg 68%
    09:00 +29°C° 0 mm 3 mps 758 mmHg 59%
    10:00 +31°C° 0 mm 3 mps 757 mmHg 50%
    11:00 +33°C° 0 mm 3 mps 757 mmHg 48%
    12:00 +34°C° 0 mm 3 mps 756 mmHg 45%
    13:00 +35°C° 0 mm 3 mps 756 mmHg 43%
    14:00 +34°C° 0 mm 4 mps 755 mmHg 46%
    15:00 +33°C° 0 mm 4 mps 755 mmHg 49%
    16:00 +33°C° 0 mm 4 mps 755 mmHg 53%
    17:00 +30°C° 0 mm 4 mps 755 mmHg 59%
    18:00 +29°C° 0 mm 3 mps 755 mmHg 65%
    19:00 +27°C° 0 mm 3 mps 756 mmHg 71%
    20:00 +27°C° 0 mm 3 mps 756 mmHg 75%
    21:00 +26°C° 0 mm 2 mps 757 mmHg 79%
    22:00 +25°C° 0 mm 2 mps 757 mmHg 83%
    23:00 +25°C° 0 mm 2 mps 757 mmHg 84%

    22 January, Monday

    Time Temperature Precipitation Wind Pressure Humidity
    00:00 +24°C° 0 mm 1 mps 757 mmHg 86%
    01:00 +24°C° 0 mm 1 mps 756 mmHg 88%
    02:00 +24°C° 0.1 mm 1 mps 756 mmHg 89%
    03:00 +23°C° 0.1 mm 1 mps 756 mmHg 90%
    04:00 +23°C° 0.1 mm 1 mps 756 mmHg 92%
    05:00 +24°C° 0.1 mm 1 mps 756 mmHg 87%
    06:00 +25°C° 0.1 mm 1 mps 757 mmHg 82%
    07:00 +26°C° 0.1 mm 1 mps 757 mmHg 76%
    08:00 +29°C° 0 mm 1 mps 757 mmHg 66%
    09:00 +31°C° 0 mm 1 mps 757 mmHg 55%
    10:00 +34°C° 0 mm 1 mps 756 mmHg 44%
    11:00 +35°C° 0 mm 2 mps 756 mmHg 42%
    12:00 +36°C° 0 mm 2 mps 755 mmHg 39%
    13:00 +37°C° 0 mm 3 mps 755 mmHg 37%
    14:00 +36°C° 0 mm 3 mps 755 mmHg 40%
    15:00 +35°C° 0 mm 4 mps 754 mmHg 42%
    16:00 +35°C° 0 mm 5 mps 754 mmHg 45%
    17:00 +33°C° 0 mm 4 mps 754 mmHg 52%
    18:00 +30°C° 0 mm 4 mps 755 mmHg 59%
    19:00 +28°C° 0 mm 4 mps 755 mmHg 67%
    20:00 +27°C° 0 mm 3 mps 756 mmHg 72%
    21:00 +26°C° 0 mm 3 mps 756 mmHg 77%
    22:00 +25°C° 0 mm 2 mps 757 mmHg 82%
    23:00 +25°C° 0 mm 2 mps 756 mmHg 84%

    23 January, Tuesday

    Time Temperature Precipitation Wind Pressure Humidity
    00:00 +25°C° 0 mm 2 mps 756 mmHg 86%
    01:00 +24°C° 0 mm 2 mps 756 mmHg 87%
    02:00 +24°C° 0 mm 1 mps 756 mmHg 89%
    03:00 +24°C° 0 mm 1 mps 756 mmHg 90%
    04:00 +23°C° 0 mm 1 mps 755 mmHg 91%
    05:00 +24°C° 0 mm 1 mps 756 mmHg 86%
    06:00 +24°C° 0 mm 0 mps 756 mmHg 81%
    07:00 +25°C° 0 mm 0 mps 757 mmHg 76%
    08:00 +29°C° 0 mm 1 mps 757 mmHg 66%
    09:00 +31°C° 0 mm 1 mps 756 mmHg 57%
    10:00 +34°C° 0 mm 2 mps 756 mmHg 47%
    11:00 +35°C° 0 mm 2 mps 756 mmHg 44%
    12:00 +36°C° 0 mm 3 mps 755 mmHg 41%
    13:00 +36°C° 0 mm 3 mps 754 mmHg 38%
    14:00 +36°C° 0 mm 4 mps 754 mmHg 40%
    15:00 +35°C° 0 mm 4 mps 754 mmHg 42%
    16:00 +34°C° 0 mm 5 mps 754 mmHg 44%
    17:00 +33°C° 0 mm 4 mps 754 mmHg 52%
    18:00 +30°C° 0 mm 4 mps 755 mmHg 59%
    19:00 +28°C° 0 mm 4 mps 755 mmHg 67%
    20:00 +27°C° 0 mm 3 mps 755 mmHg 72%
    21:00 +26°C° 0 mm 3 mps 756 mmHg 77%
    22:00 +25°C° 0 mm 2 mps 756 mmHg 83%
    23:00 +25°C° 0 mm 2 mps 756 mmHg 84%

    24 January, Wednesday

    Time Temperature Precipitation Wind Pressure Humidity
    00:00 +25°C° 0 mm 2 mps 756 mmHg 85%
    01:00 +24°C° 0 mm 1 mps 755 mmHg 86%
    02:00 +24°C° 0 mm 1 mps 755 mmHg 86%
    03:00 +24°C° 0 mm 1 mps 755 mmHg 86%
    04:00 +24°C° 0 mm 1 mps 755 mmHg 86%
    05:00 +25°C° 0 mm 1 mps 755 mmHg 80%
    06:00 +26°C° 0 mm 1 mps 756 mmHg 75%
    07:00 +27°C° 0 mm 2 mps 756 mmHg 70%
    08:00 +29°C° 0 mm 2 mps 756 mmHg 61%
    09:00 +31°C° 0 mm 3 mps 756 mmHg 52%
    10:00 +34°C° 0 mm 3 mps 756 mmHg 44%
    11:00 +34°C° 0 mm 3 mps 755 mmHg 42%
    12:00 +35°C° 0 mm 4 mps 755 mmHg 40%
    13:00 +36°C° 0 mm 4 mps 754 mmHg 38%
    14:00 +35°C° 0 mm 5 mps 754 mmHg 41%
    15:00 +35°C° 0 mm 5 mps 754 mmHg 43%
    16:00 +34°C° 0 mm 5 mps 753 mmHg 46%
    17:00 +32°C° 0 mm 5 mps 754 mmHg 55%
    18:00 +29°C° 0 mm 4 mps 754 mmHg 63%
    19:00 +27°C° 0 mm 4 mps 755 mmHg 72%
    20:00 +27°C° 0 mm 4 mps 755 mmHg 78%
    21:00 +26°C° 0 mm 3 mps 755 mmHg 83%
    22:00 +25°C° 0 mm 3 mps 755 mmHg 88%
    23:00 +25°C° 0.1 mm 3 mps 755 mmHg 89%
    Show more